📊 Raw Sensor Data

Showing records 43026 to 43050 of 85,010 total

ID Distance (ft) Battery V Battery A Int Temp (°F) Int Humid (%) Ext Temp (°F) Solar V RSSI SNR Time Stamp
41997 15.4 4.09 0 97 41 88 5.10 -75 8 05/29/2025 02:45 PM
41996 15.5 3.94 7 98 39 87 5.10 -74 8 05/29/2025 02:30 PM
41995 15.5 4.11 6 94 40 89 5.10 -74 7 05/29/2025 02:15 PM
41994 15.4 3.94 0 91 41 83 5.10 -72 7 05/29/2025 02:00 PM
41993 15.4 3.94 0 90 41 83 5.10 -74 7 05/29/2025 01:45 PM
41992 15.4 3.96 7 90 40 84 5.10 -74 8 05/29/2025 01:30 PM
41991 15.4 3.98 7 87 42 81 5.10 -72 8 05/29/2025 01:15 PM
41990 15.5 3.94 7 85 42 80 5.10 -73 7 05/29/2025 01:00 PM
41989 15.4 3.94 0 84 42 79 5.10 -74 7 05/29/2025 12:45 PM
41988 15.5 3.94 0 83 42 79 5.10 -75 8 05/29/2025 12:30 PM
41987 15.5 3.95 8 82 42 77 5.10 -74 8 05/29/2025 12:15 PM
41986 15.6 3.94 5 82 42 79 5.10 -74 8 05/29/2025 12:00 PM
41985 15.6 3.94 7 81 41 77 5.10 -74 8 05/29/2025 11:45 AM
41984 15.6 3.94 0 79 41 78 5.10 -73 8 05/29/2025 11:30 AM
41983 15.6 3.94 0 76 41 76 5.10 -74 7 05/29/2025 11:15 AM
41982 15.6 3.94 8 75 41 72 5.10 -74 7 05/29/2025 11:00 AM
41981 15.6 4.11 8 74 41 74 5.10 -73 8 05/29/2025 10:45 AM
41980 15.6 3.94 8 72 41 71 5.10 -73 8 05/29/2025 10:30 AM
41979 15.6 3.94 0 70 41 70 5.10 -72 7 05/29/2025 10:15 AM
41978 15.6 3.94 8 69 42 67 5.10 -73 8 05/29/2025 10:00 AM
41977 15.6 3.93 0 67 42 66 5.10 -71 8 05/29/2025 09:45 AM
41976 15.6 3.93 0 66 42 65 5.10 -73 8 05/29/2025 09:30 AM
41975 15.6 3.93 0 65 42 65 5.10 -73 8 05/29/2025 09:15 AM
41974 15.6 3.94 8 65 42 63 5.10 -75 8 05/29/2025 09:00 AM
41973 15.6 3.93 8 63 42 64 5.10 -74 8 05/29/2025 08:45 AM